Location: CHKOBrdy
(49.7003°N, 13.8414°E)
Time: 12:28:28
(UTC+01:00)

ISS - Visible Passes

Search period start: 29 November 2022 00:00
Search period end: 09 December 2022 00:00
Orbit: 411 x 420 km, 51.6° (Epoch: 29 November)

Date Brightness Start Highest point End Pass type
(mag) Time Alt. Az. Time Alt. Az. Time Alt. Az.
29 Nov -3.7 17:51:42 10° WNW 17:55:01 64° N 17:55:46 46° ENE visible
29 Nov -0.2 19:28:30 10° WNW 19:28:40 11° WNW 19:28:40 11° WNW visible
30 Nov -3.6 17:02:57 10° W 17:06:15 59° N 17:09:05 13° E visible
30 Nov -2.4 18:39:45 10° WNW 18:41:58 38° W 18:41:58 38° W visible
01 Dec -3.9 17:50:59 10° WNW 17:54:20 88° N 17:55:19 43° ESE visible
01 Dec -0.3 19:28:00 10° W 19:28:13 11° W 19:28:13 11° W visible
02 Dec -3.8 17:02:12 10° WNW 17:05:32 72° N 17:08:45 11° E visible
02 Dec -2.2 18:39:03 10° W 18:41:39 34° SW 18:41:39 34° SW visible
03 Dec -3.1 17:50:10 10° WNW 17:53:25 53° SSW 17:55:11 24° SE visible
04 Dec -3.6 17:01:18 10° WNW 17:04:39 75° SSW 17:07:57 10° ESE visible
04 Dec -1.3 18:38:35 10° W 18:40:57 18° SW 18:41:49 17° SSW visible
05 Dec -1.7 17:49:24 10° W 17:52:15 27° SW 17:55:07 10° SSE visible
06 Dec -2.3 17:00:21 10° W 17:03:30 39° SSW 17:06:38 10° SE visible
07 Dec -0.6 17:49:12 10° WSW 17:50:49 13° SW 17:52:26 10° SSW visible
08 Dec -0.8 16:59:35 10° W 17:02:05 20° SW 17:04:35 10° S visible
